Time,TemperatureF,DewpointF,PressureIn,WindDirection,WindDirectionDegrees,WindSpeedMPH,WindSpeedGustMPH,Humidity,HourlyPrecipIn,Conditions,Clouds,dailyrainin,SoftwareType,DateUTC
2013-04-02 00:06:00,28.0,19.0,30.15,NNE,18,0.0,0.0,70,0.00,,,0.00,weatherlink.com 1.10,2013-04-02 05:06:00,
2013-04-02 00:21:00,27.6,19.0,30.15,NNE,18,0.0,0.0,71,0.00,,,0.00,weatherlink.com 1.10,2013-04-02 05:21:00,
2013-04-02 00:36:00,27.2,20.0,30.15,NNE,18,0.0,0.0,73,0.00,,,0.00,weatherlink.com 1.10,2013-04-02 05:36:00,
2013-04-02 00:51:00,27.0,19.0,30.14,NNE,18,0.0,0.0,72,0.00,,,0.00,weatherlink.com 1.10,2013-04-02 05:51:00,
2013-04-02 01:06:00,26.7,19.0,30.14,NNE,18,0.0,0.0,72,0.00,,,0.00,weatherlink.com 1.10,2013-04-02 06:06:00,
2013-04-02 01:21:00,26.5,19.0,30.14,NNE,18,0.0,0.0,74,0.00,,,0.00,weatherlink.com 1.10,2013-04-02 06:21:00,
2013-04-02 01:36:00,26.1,19.0,30.14,NNE,18,0.0,0.0,74,0.00,,,0.00,weatherlink.com 1.10,2013-04-02 06:36:00,
2013-04-02 01:51:00,26.0,19.0,30.14,NNE,18,0.0,0.0,76,0.00,,,0.00,weatherlink.com 1.10,2013-04-02 06:51:00,
2013-04-02 02:21:00,25.6,20.0,30.14,NNE,18,0.0,0.0,79,0.00,,,0.00,weatherlink.com 1.10,2013-04-02 07:21:00,
2013-04-02 02:36:00,25.3,20.0,30.14,NNE,18,0.0,0.0,80,0.00,,,0.00,weatherlink.com 1.10,2013-04-02 07:36:00,
2013-04-02 02:51:00,25.1,20.0,30.13,NNE,18,0.0,0.0,80,0.00,,,0.00,weatherlink.com 1.10,2013-04-02 07:51:00,
2013-04-02 03:07:00,24.7,20.0,30.13,NNE,18,0.0,0.0,81,0.00,,,0.00,weatherlink.com 1.10,2013-04-02 08:07:00,
2013-04-02 03:22:00,24.7,20.0,30.14,NNE,18,0.0,0.0,81,0.00,,,0.00,weatherlink.com 1.10,2013-04-02 08:22:00,
2013-04-02 03:37:00,24.4,20.0,30.14,NNE,18,0.0,0.0,82,0.00,,,0.00,weatherlink.com 1.10,2013-04-02 08:37:00,
2013-04-02 03:52:00,24.3,20.0,30.14,NNE,18,0.0,0.0,82,0.00,,,0.00,weatherlink.com 1.10,2013-04-02 08:52:00,
2013-04-02 04:07:00,24.1,19.0,30.14,NNE,18,0.0,0.0,82,0.00,,,0.00,weatherlink.com 1.10,2013-04-02 09:07:00,
2013-04-02 04:22:00,23.9,19.0,30.14,NNE,18,0.0,0.0,82,0.00,,,0.00,weatherlink.com 1.10,2013-04-02 09:22:00,
2013-04-02 04:37:00,23.7,19.0,30.15,NNE,18,0.0,0.0,82,0.00,,,0.00,weatherlink.com 1.10,2013-04-02 09:37:00,
2013-04-02 04:52:00,23.5,19.0,30.15,NNE,18,0.0,0.0,82,0.00,,,0.00,weatherlink.com 1.10,2013-04-02 09:52:00,
2013-04-02 05:07:00,23.2,19.0,30.15,NNE,18,0.0,0.0,82,0.00,,,0.00,weatherlink.com 1.10,2013-04-02 10:07:00,
2013-04-02 05:22:00,22.9,19.0,30.16,NNE,18,0.0,0.0,83,0.00,,,0.00,weatherlink.com 1.10,2013-04-02 10:22:00,
2013-04-02 05:37:00,23.0,19.0,30.16,NNE,18,0.0,0.0,84,0.00,,,0.00,weatherlink.com 1.10,2013-04-02 10:37:00,
2013-04-02 05:52:00,22.9,19.0,30.16,NNE,18,0.0,0.0,84,0.00,,,0.00,weatherlink.com 1.10,2013-04-02 10:52:00,
2013-04-02 06:07:00,23.1,19.0,30.16,NNE,18,0.0,0.0,84,0.00,,,0.00,weatherlink.com 1.10,2013-04-02 11:07:00,
2013-04-02 06:22:00,23.0,19.0,30.16,NNE,18,0.0,0.0,84,0.00,,,0.00,weatherlink.com 1.10,2013-04-02 11:22:00,
2013-04-02 06:37:00,22.9,19.0,30.17,NNE,18,0.0,0.0,84,0.00,,,0.00,weatherlink.com 1.10,2013-04-02 11:37:00,
2013-04-02 06:52:00,22.8,19.0,30.17,NNE,18,0.0,0.0,84,0.00,,,0.00,weatherlink.com 1.10,2013-04-02 11:52:00,
2013-04-02 07:07:00,22.7,19.0,30.17,NNE,18,0.0,0.0,84,0.00,,,0.00,weatherlink.com 1.10,2013-04-02 12:07:00,
2013-04-02 07:22:00,22.6,19.0,30.17,NNE,18,0.0,0.0,84,0.00,,,0.00,weatherlink.com 1.10,2013-04-02 12:22:00,
2013-04-02 07:37:00,22.6,19.0,30.18,NNE,18,0.0,0.0,85,0.00,,,0.00,weatherlink.com 1.10,2013-04-02 12:37:00,
2013-04-02 07:52:00,22.9,19.0,30.17,NNE,18,0.0,0.0,85,0.00,,,0.00,weatherlink.com 1.10,2013-04-02 12:52:00,
2013-04-02 08:07:00,24.3,20.0,30.17,NNE,18,0.0,0.0,84,0.00,,,0.00,weatherlink.com 1.10,2013-04-02 13:07:00,
2013-04-02 08:22:00,26.3,21.0,30.18,NNE,18,0.0,0.0,81,0.00,,,0.00,weatherlink.com 1.10,2013-04-02 13:22:00,
2013-04-02 08:37:00,28.8,22.0,30.18,NNE,18,0.0,0.0,75,0.00,,,0.00,weatherlink.com 1.10,2013-04-02 13:37:00,
2013-04-02 08:52:00,32.2,23.0,30.18,NNE,18,0.0,0.0,70,0.00,,,0.00,weatherlink.com 1.10,2013-04-02 13:52:00,
2013-04-02 09:07:00,33.4,23.0,30.18,North,11,0.0,3.0,66,0.00,,,0.00,weatherlink.com 1.10,2013-04-02 14:07:00,
2013-04-02 09:22:00,34.6,23.0,30.18,WSW,248,0.0,2.0,64,0.00,,,0.00,weatherlink.com 1.10,2013-04-02 14:22:00,
2013-04-02 09:37:00,35.8,23.0,30.18,WSW,248,0.0,1.0,61,0.00,,,0.00,weatherlink.com 1.10,2013-04-02 14:37:00,
2013-04-02 09:52:00,36.9,24.0,30.18,SSW,211,0.0,3.0,59,0.00,,,0.00,weatherlink.com 1.10,2013-04-02 14:52:00,
2013-04-02 10:07:00,38.2,24.0,30.18,ESE,117,0.0,3.0,56,0.00,,,0.00,weatherlink.com 1.10,2013-04-02 15:07:00,
2013-04-02 10:22:00,39.3,24.0,30.18,SSW,198,0.0,5.0,54,0.00,,,0.00,weatherlink.com 1.10,2013-04-02 15:22:00,
2013-04-02 10:37:00,39.9,23.0,30.18,SSW,198,0.0,3.0,51,0.01,,,0.01,weatherlink.com 1.10,2013-04-02 15:37:00,
2013-04-02 10:52:00,40.5,23.0,30.18,South,173,0.0,4.0,50,0.01,,,0.01,weatherlink.com 1.10,2013-04-02 15:52:00,
2013-04-02 11:00:00,41.1,22.9,30.18,South,180,0.0,4.0,48,0.01,,---,0.01,VWS V14.01,2013-04-02 16:00:00,
2013-04-02 11:07:00,41.7,25.0,30.18,WSW,250,0.0,4.0,51,0.01,,,0.01,weatherlink.com 1.10,2013-04-02 16:07:00,
2013-04-02 11:23:00,42.4,24.0,30.18,NNE,19,0.0,2.0,48,0.01,,,0.01,weatherlink.com 1.10,2013-04-02 16:23:00,
2013-04-02 11:38:00,43.6,23.0,30.17,NNW,330,0.0,3.0,45,0.01,,,0.02,weatherlink.com 1.10,2013-04-02 16:38:00,
2013-04-02 11:53:00,43.2,24.0,30.17,SSE,156,0.0,3.0,47,0.01,,,0.02,weatherlink.com 1.10,2013-04-02 16:53:00,
2013-04-02 12:00:00,43.9,24.5,30.17,WSW,247,0.0,5.0,46,0.00,,---,0.02,VWS V14.01,2013-04-02 17:00:00,
2013-04-02 12:27:00,45.9,24.0,30.16,West,274,0.0,4.0,43,0.01,,,0.02,weatherlink.com 1.10,2013-04-02 17:27:00,
2013-04-02 12:45:00,47.3,27.0,30.15,West,273,0.0,1.0,45,0.00,,,0.02,weatherlink.com 1.10,2013-04-02 17:45:00,
2013-04-02 13:00:00,47.9,26.5,30.15,WNW,284,0.0,4.0,43,0.00,,---,0.02,VWS V14.01,2013-04-02 18:00:00,
2013-04-02 13:20:00,48.5,26.0,30.14,NNW,327,0.0,7.0,42,0.00,,,0.02,weatherlink.com 1.10,2013-04-02 18:20:00,
2013-04-02 13:35:00,48.8,30.0,30.13,WNW,285,1.0,6.0,48,0.00,,,0.02,weatherlink.com 1.10,2013-04-02 18:35:00,
2013-04-02 13:50:00,49.4,27.0,30.13,West,275,2.0,4.0,42,0.00,,,0.02,weatherlink.com 1.10,2013-04-02 18:50:00,
2013-04-02 14:05:00,50.6,28.0,30.13,WNW,286,0.0,5.0,42,0.00,,,0.02,weatherlink.com 1.10,2013-04-02 19:05:00,
2013-04-02 14:20:00,51.0,29.0,30.12,WNW,290,0.0,1.0,43,0.00,,,0.02,weatherlink.com 1.10,2013-04-02 19:20:00,
2013-04-02 14:35:00,51.1,28.0,30.12,NW,323,0.0,4.0,41,0.00,,,0.02,weatherlink.com 1.10,2013-04-02 19:35:00,
2013-04-02 14:50:00,51.8,28.0,30.11,West,261,1.0,6.0,40,0.00,,,0.02,weatherlink.com 1.10,2013-04-02 19:50:00,
2013-04-02 15:05:00,52.3,28.0,30.11,NNW,343,0.0,4.0,40,0.00,,,0.02,weatherlink.com 1.10,2013-04-02 20:05:00,
2013-04-02 15:20:00,52.1,27.0,30.11,SW,229,0.0,4.0,38,0.00,,,0.02,weatherlink.com 1.10,2013-04-02 20:20:00,
2013-04-02 15:35:00,52.4,28.0,30.10,NW,311,1.0,4.0,39,0.00,,,0.02,weatherlink.com 1.10,2013-04-02 20:35:00,
2013-04-02 15:50:00,52.9,30.0,30.10,West,281,2.0,4.0,41,0.00,,,0.02,weatherlink.com 1.10,2013-04-02 20:50:00,
2013-04-02 16:05:00,54.4,29.0,30.09,SW,232,2.0,5.0,38,0.00,,,0.02,weatherlink.com 1.10,2013-04-02 21:05:00,
2013-04-02 16:20:00,53.2,29.0,30.09,SW,229,3.0,5.0,39,0.00,,,0.02,weatherlink.com 1.10,2013-04-02 21:20:00,
2013-04-02 17:06:00,53.2,31.0,30.08,WNW,289,0.0,4.0,43,0.00,,,0.02,weatherlink.com 1.10,2013-04-02 22:06:00,
2013-04-02 17:21:00,54.0,29.0,30.07,WNW,291,0.0,5.0,39,0.00,,,0.02,weatherlink.com 1.10,2013-04-02 22:21:00,
2013-04-02 17:36:00,53.9,28.0,30.08,West,278,0.0,1.0,37,0.00,,,0.02,weatherlink.com 1.10,2013-04-02 22:36:00,
2013-04-02 17:51:00,52.9,28.0,30.08,SW,219,0.0,3.0,39,0.00,,,0.02,weatherlink.com 1.10,2013-04-02 22:51:00,
2013-04-02 18:06:00,52.3,28.0,30.08,SW,219,0.0,1.0,39,0.00,,,0.02,weatherlink.com 1.10,2013-04-02 23:06:00,
2013-04-02 18:21:00,52.8,28.0,30.08,SW,219,0.0,0.0,39,0.00,,,0.02,weatherlink.com 1.10,2013-04-02 23:21:00,
2013-04-02 18:51:00,51.8,27.0,30.08,SW,219,0.0,1.0,39,0.00,,,0.02,weatherlink.com 1.10,2013-04-02 23:51:00,
2013-04-02 19:21:00,50.5,27.0,30.08,SW,219,0.0,0.0,40,0.00,,,0.02,weatherlink.com 1.10,2013-04-03 00:21:00,
2013-04-02 19:36:00,49.6,27.0,30.07,SW,219,0.0,0.0,41,0.00,,,0.02,weatherlink.com 1.10,2013-04-03 00:36:00,
2013-04-02 19:51:00,48.4,27.0,30.07,SW,219,0.0,1.0,44,0.00,,,0.02,weatherlink.com 1.10,2013-04-03 00:51:00,
2013-04-02 20:06:00,46.9,27.0,30.07,SW,219,0.0,0.0,46,0.00,,,0.02,weatherlink.com 1.10,2013-04-03 01:06:00,
2013-04-02 20:21:00,45.5,27.0,30.07,SW,219,0.0,1.0,48,0.00,,,0.02,weatherlink.com 1.10,2013-04-03 01:21:00,
2013-04-02 20:36:00,44.5,26.0,30.08,SW,219,0.0,0.0,49,0.00,,,0.02,weatherlink.com 1.10,2013-04-03 01:36:00,
2013-04-02 20:51:00,43.8,26.0,30.08,South,169,0.0,0.0,50,0.00,,,0.02,weatherlink.com 1.10,2013-04-03 01:51:00,
2013-04-02 21:06:00,43.1,26.0,30.08,South,169,0.0,0.0,51,0.00,,,0.02,weatherlink.com 1.10,2013-04-03 02:06:00,
2013-04-02 21:21:00,42.5,26.0,30.09,South,169,0.0,0.0,53,0.00,,,0.02,weatherlink.com 1.10,2013-04-03 02:21:00,
2013-04-02 21:36:00,42.0,26.0,30.09,South,169,0.0,2.0,53,0.00,,,0.02,weatherlink.com 1.10,2013-04-03 02:36:00,
2013-04-02 21:51:00,41.6,26.0,30.10,South,169,0.0,0.0,54,0.00,,,0.02,weatherlink.com 1.10,2013-04-03 02:51:00,
2013-04-02 22:06:00,41.6,26.0,30.10,South,172,1.0,4.0,54,0.00,,,0.02,weatherlink.com 1.10,2013-04-03 03:06:00,
2013-04-02 22:36:00,41.4,24.0,30.11,East,83,0.0,8.0,51,0.00,,,0.02,weatherlink.com 1.10,2013-04-03 03:36:00,
2013-04-02 23:06:00,40.1,24.0,30.11,SSE,160,0.0,6.0,53,0.00,,,0.02,weatherlink.com 1.10,2013-04-03 04:06:00,
2013-04-02 23:21:00,39.4,24.0,30.12,South,176,0.0,5.0,55,0.00,,,0.02,weatherlink.com 1.10,2013-04-03 04:21:00,
2013-04-02 23:36:00,38.7,24.0,30.12,South,169,0.0,3.0,56,0.00,,,0.02,weatherlink.com 1.10,2013-04-03 04:36:00,